Tracking 23448 objects as of 23-Jun-2021
HD Live streaming from Space Station
objects crossing your sky now

SL-8 R/B

Track SL-8 R/B now!
10-day predictions


NORAD ID: 12792
Int'l Code: 1981-084B
Perigee: 764.3 km
Apogee: 782.7 km
Inclination: 74.0 °
Period: 100.2 minutes
Semi major axis: 7144 km
RCS: 5.0997 m2 (large)
Launch date: August 28, 1981
Source: Commonwealth of Independent States (former USSR) (CIS)
Launch site: PLESETSK MISSILE AND SPACE COMPLEX (PKMTR)

Note: This is a ROCKET BODY
aabbcc
Your satellite tracking list
Your tracking list is empty




NASA's NSSDC Master Catalog

Two Line Element Set (TLE):
1 12792U 81084B   21173.53427401  .00000001  00000-0  92184-5 0  9992
2 12792  74.0286 215.7087 0012934 149.8501 210.3400 14.37623223 85441
Source of the keplerian elements: AFSPC